Weather History for CWWE - January, 2013

Change the Weather History Date:

Tuesday, January 8, 2013

  Actual Average Record
Temperature  
Mean Temperature 26 °F -  
Max Temperature 44 °F - - ()
Min Temperature 7 °F - - ()
Degree Days  
Heating Degree Days 40    
Moisture  
Dew Point 25 °F    
Average Humidity 82    
Maximum Humidity 93    
Minimum Humidity 65    
Precipitation  
Precipitation 0.00 in - - ()
Sea Level Pressure  
Sea Level Pressure 30.30 in    
Wind  
Wind Speed 11 mph ()    
Max Wind Speed 28 mph    
Max Gust Speed 41 mph    
T = Trace of Precipitation, MM = Missing Value Source: Averaged Metar Reports

Daily Weather History Graph

Daily Weather History Graph

Search for Another Location

Airport or City:

Trip Planner

Search our weather history database for the weather conditions in past years. The results will help you decide how hot, cold, wet, or windy it might be!

Date:

Astronomy

Jan. 08, 2013 Rise Set
Actual Time 7:52 AM AST 4:58 PM AST
Civil Twilight 7:20 AM AST 5:31 PM AST
Nautical Twilight 6:44 AM AST 6:07 PM AST
Astronomical Twilight 6:09 AM AST 6:42 PM AST
Moon 4:20 AM AST (1/8) 1:57 PM AST (1/8)
Length of Visible Light 10h 10m
Length of Day
9h 05m
Waning Crescent, 14% of the Moon is Illuminated
Jan 8
Waning Crescent
Jan 11
New
Jan 18
First Quarter
Jan 27
Full
Feb 3
Last Quarter

Hourly Weather History & Observations

Time (AST) Temp. Windchill Dew Point Humidity Pressure Visibility Wind Dir Wind Speed Gust Speed Precip Events Conditions
1:00 AM 8.6 °F -3.7 °F 4.6 °F 84% 30.42 in - WNW 8.1 mph - N/A   Unknown
2:00 AM 9 °F - 5 °F 76% 30.43 in - West 8.1 mph - -  
2:00 AM 9.0 °F -3.2 °F 5.0 °F 84% 30.43 in - West 8.1 mph - N/A   Unknown
3:00 AM 8.8 °F -1.1 °F 5.4 °F 86% 30.42 in - West 5.8 mph - N/A   Unknown
4:00 AM 15.1 °F 4.2 °F 12.4 °F 89% 30.39 in - WSW 8.1 mph - N/A   Unknown
5:00 AM 15 °F - 12 °F 82% 30.38 in - WSW 9.2 mph - -  
5:00 AM 14.9 °F 3.1 °F 12.0 °F 88% 30.38 in - WSW 9.2 mph - N/A   Unknown
6:00 AM 12.6 °F 3.4 °F 9.0 °F 85% 30.36 in - West 5.8 mph - N/A   Unknown
7:00 AM 13.3 °F 5.6 °F 10.4 °F 88% 30.37 in - West 4.6 mph - N/A   Unknown
8:00 AM 22 °F - 20 °F 91% 30.36 in - WSW 11.5 mph - -  
8:00 AM 22.3 °F 10.8 °F 20.5 °F 93% 30.36 in - WSW 11.5 mph - N/A   Unknown
9:00 AM 31.5 °F 19.4 °F 28.4 °F 88% 30.35 in - SW 19.6 mph 27.6 mph N/A   Unknown
10:00 AM 36.9 °F 25.9 °F 31.8 °F 82% 30.31 in - SSW 21.9 mph 28.8 mph N/A   Unknown
11:00 AM 40 °F - 34 °F 70% 30.28 in - SW 25.3 mph - -  
11:00 AM 39.6 °F 28.7 °F 33.6 °F 79% 30.28 in - SW 25.3 mph 31.1 mph N/A   Unknown
12:00 PM 41.0 °F 30.7 °F 35.1 °F 79% 30.24 in - SW 25.3 mph 32.2 mph N/A   Unknown
1:00 PM 42.8 °F 32.7 °F 34.2 °F 72% 30.22 in - WSW 27.6 mph 41.4 mph N/A   Unknown
2:00 PM 43 °F - 35 °F 65% 30.19 in - WSW 24.2 mph - -  
2:00 PM 43.3 °F 34.0 °F 35.2 °F 73% 30.19 in - WSW 24.2 mph 29.9 mph N/A   Unknown
3:00 PM 43.5 °F 34.0 °F 35.6 °F 74% 30.19 in - WSW 25.3 mph 33.4 mph N/A   Unknown
4:00 PM 43.2 °F 34.7 °F 35.4 °F 74% 30.20 in - WSW 19.6 mph 26.5 mph N/A   Unknown
5:00 PM 41.9 °F 33.4 °F 34.7 °F 76% 30.20 in - WSW 18.4 mph 24.2 mph N/A   Unknown
6:00 PM 41.0 °F 33.5 °F 34.2 °F 77% 30.21 in - WSW 13.8 mph 20.7 mph N/A   Unknown
7:00 PM 39.7 °F 32.7 °F 34.7 °F 82% 30.22 in - WSW 11.5 mph - N/A   Unknown
8:00 PM 39 °F - 35 °F 80% 30.24 in - West 6.9 mph - -  
8:00 PM 39.0 °F 34.0 °F 35.1 °F 86% 30.24 in - West 6.9 mph - N/A   Unknown
9:00 PM 38.5 °F 34.1 °F 34.5 °F 86% 30.25 in - West 5.8 mph - N/A   Unknown
10:00 PM 34.7 °F 29.6 °F 32.0 °F 90% 30.27 in - West 5.8 mph - N/A   Unknown
11:00 PM 33 °F - 31 °F 91% 30.29 in - West 3.5 mph - -  
11:00 PM 33.1 °F 30.0 °F 31.3 °F 93% 30.29 in - West 3.5 mph - N/A   Unknown